| time (UTC) | temp F | wind direction | speed knots | gust knots | rain 1hr in | rain 24hr in | rain mn in | humidity % | barometer mb |
| 20260510153016 | 37 | 0 | 3.5 | 8.7 | 0.00 | 0.01 | 0.01 | 76 | 1018.7 |
| 20260510152016 | 37 | 315 | 3.5 | 7.8 | 0.00 | 0.01 | 0.01 | 79 | 1018.5 |
| 20260510151016 | 36 | 315 | 3.5 | 10.4 | 0.00 | 0.01 | 0.01 | 80 | 1018.4 |
| 20260510150016 | 36 | 315 | 2.6 | 6.1 | 0.00 | 0.01 | 0.01 | 82 | 1018.3 |
| 20260510145016 | 36 | 315 | 2.6 | 7.0 | 0.00 | 0.01 | 0.01 | 83 | 1018.2 |
| 20260510144016 | 35 | 315 | 3.5 | 10.4 | 0.00 | 0.01 | 0.01 | 81 | 1018.1 |
| 20260510143016 | 35 | 315 | 5.2 | 11.3 | 0.00 | 0.01 | 0.01 | 82 | 1018.0 |
| 20260510142016 | 36 | 315 | 3.5 | 7.8 | 0.00 | 0.01 | 0.01 | 83 | 1018.0 |
| 20260510141036 | 35 | 315 | 6.1 | 11.3 | 0.00 | 0.01 | 0.01 | 84 | 1017.8 |
| 20260510140016 | 35 | 315 | 3.5 | 7.8 | 0.00 | 0.01 | 0.01 | 87 | 1017.7 |
| 20260510135016 | 35 | 315 | 2.6 | 7.8 | 0.00 | 0.01 | 0.01 | 88 | 1017.6 |
| 20260510134016 | 35 | 315 | 3.5 | 8.7 | 0.00 | 0.01 | 0.01 | 87 | 1017.7 |
| 20260510133016 | 35 | 338 | 2.6 | 8.7 | 0.00 | 0.01 | 0.01 | 88 | 1017.7 |
| 20260510132036 | 35 | 338 | 2.6 | 5.2 | 0.00 | 0.01 | 0.01 | 88 | 1017.5 |
| 20260510131016 | 35 | 315 | 2.6 | 7.8 | 0.00 | 0.01 | 0.01 | 88 | 1017.6 |
| 20260510130016 | 35 | 315 | 2.6 | 7.0 | 0.00 | 0.01 | 0.01 | 89 | 1017.5 |
| 20260510125016 | 34 | 315 | 3.5 | 8.7 | 0.00 | 0.01 | 0.01 | 89 | 1017.2 |
| 20260510124016 | 34 | 315 | 1.7 | 5.2 | 0.00 | 0.01 | 0.01 | 91 | 1017.2 |
| 20260510123016 | 34 | 315 | 3.5 | 7.8 | 0.00 | 0.01 | 0.01 | 91 | 1016.9 |
| 20260510122016 | 34 | 293 | 4.3 | 8.7 | 0.00 | 0.01 | 0.01 | 91 | 1016.8 |
| 20260510121016 | 34 | 293 | 3.5 | 6.1 | 0.00 | 0.01 | 0.01 | 92 | 1016.7 |
| 20260510120036 | 34 | 293 | 2.6 | 5.2 | 0.00 | 0.01 | 0.01 | 92 | 1016.5 |
| 20260510115016 | 34 | 293 | 3.5 | 6.1 | 0.00 | 0.01 | 0.01 | 93 | 1016.3 |
| 20260510114016 | 34 | 293 | 3.5 | 7.0 | 0.00 | 0.01 | 0.01 | 93 | 1016.2 |
| 20260510113016 | 34 | 293 | 3.5 | 7.0 | 0.00 | 0.01 | 0.01 | 94 | 1016.1 |
| 20260510112016 | 33 | 293 | 3.5 | 7.0 | 0.00 | 0.01 | 0.01 | 94 | 1016.0 |
| 20260510111016 | 33 | 293 | 3.5 | 7.0 | 0.01 | 0.01 | 0.01 | 94 | 1015.7 |
| 20260510110036 | 33 | 293 | 3.5 | 7.0 | 0.01 | 0.01 | 0.01 | 94 | 1015.5 |
| 20260510105016 | 33 | 293 | 2.6 | 4.3 | 0.01 | 0.01 | 0.01 | 94 | 1015.3 |
| 20260510104016 | 33 | 293 | 2.6 | 5.2 | 0.01 | 0.01 | 0.01 | 94 | 1015.3 |
| 20260510103016 | 33 | 293 | 3.5 | 5.2 | 0.01 | 0.01 | 0.01 | 94 | 1015.2 |
| 20260510102016 | 33 | 293 | 2.6 | 5.2 | 0.01 | 0.01 | 0.01 | 94 | 1015.1 |
| 20260510101015 | 33 | 293 | 2.6 | 4.3 | 0.00 | 0.00 | 0.00 | 95 | 1015.1 |
| 20260510100015 | 33 | 293 | 2.6 | 6.1 | 0.00 | 0.00 | 0.00 | 95 | 1015.0 |
| 20260510095016 | 33 | 293 | 2.6 | 5.2 | 0.00 | 0.00 | 0.00 | 95 | 1014.9 |
| 20260510094036 | 33 | 293 | 2.6 | 6.1 | 0.00 | 0.00 | 0.00 | 94 | 1014.7 |
| 20260510093016 | 33 | 293 | 2.6 | 5.2 | 0.00 | 0.00 | 0.00 | 95 | 1014.5 |
| 20260510092016 | 33 | 293 | 2.6 | 5.2 | 0.00 | 0.00 | 0.00 | 94 | 1014.4 |
| 20260510091016 | 33 | 293 | 1.7 | 3.5 | 0.00 | 0.00 | 0.00 | 94 | 1014.2 |
| 20260510090015 | 33 | 293 | 0.9 | 3.5 | 0.00 | 0.00 | 0.00 | 94 | 1014.1 |
| 20260510085015 | 33 | 293 | 1.7 | 4.3 | 0.00 | 0.00 | 0.00 | 93 | 1014.1 |
| 20260510084015 | 33 | 293 | 1.7 | 4.3 | 0.00 | 0.00 | 0.00 | 93 | 1014.0 |
| 20260510083015 | 34 | 293 | 3.5 | 5.2 | 0.00 | 0.00 | 0.00 | 93 | 1013.9 |
| 20260510082015 | 34 | 315 | 0.9 | 2.6 | 0.00 | 0.00 | 0.00 | 93 | 1013.7 |
| 20260510081010 | 34 | 293 | 0.9 | 4.3 | 0.00 | 0.00 | 0.00 | 93 | 1013.8 |
| 20260510080017 | 34 | 338 | 0.9 | 2.6 | 0.00 | 0.00 | 0.00 | 93 | 1013.7 |
| 20260510075017 | 34 | 315 | 0.9 | 2.6 | 0.00 | 0.00 | 0.00 | 93 | 1013.7 |
| 20260510074017 | 34 | 0 | 1.7 | 3.5 | 0.00 | 0.00 | 0.00 | 92 | 1013.6 |
| 20260510073017 | 34 | 338 | 0.9 | 1.7 | 0.00 | 0.00 | 0.00 | 91 | 1013.4 |
| 20260510072017 | 34 | 315 | 1.7 | 3.5 | 0.00 | 0.00 | 0.00 | 91 | 1013.4 |
| 20260510071037 | 35 | 315 | 0.9 | 5.2 | 0.00 | 0.00 | 0.00 | 91 | 1013.5 |
| 20260510070057 | 35 | 315 | 0.9 | 2.6 | 0.00 | 0.00 | 0.00 | 91 | 1013.5 |
| 20260510065037 | 35 | 315 | 1.7 | 4.3 | 0.00 | 0.00 | 0.00 | 91 | 1013.5 |
| 20260510064017 | 35 | 315 | 0.9 | 3.5 | 0.00 | 0.00 | 0.00 | 90 | 1013.3 |
| 20260510063017 | 35 | 315 | 2.6 | 5.2 | 0.00 | 0.00 | 0.00 | 89 | 1013.3 |
| 20260510062037 | 36 | 315 | 2.6 | 5.2 | 0.00 | 0.00 | 0.00 | 88 | 1013.2 |
| 20260510061017 | 36 | 315 | 1.7 | 5.2 | 0.00 | 0.00 | 0.00 | 87 | 1013.1 |
| 20260510060017 | 36 | 315 | 1.7 | 5.2 | 0.00 | 0.00 | 0.00 | 85 | 1013.1 |
| 20260510055017 | 36 | 315 | 2.6 | 6.1 | 0.00 | 0.00 | 0.00 | 85 | 1012.8 |
| 20260510054017 | 36 | 315 | 0.9 | 3.5 | 0.00 | 0.00 | 0.00 | 85 | 1012.8 |
| 20260510053017 | 36 | 315 | 0.9 | 3.5 | 0.00 | 0.00 | 0.00 | 85 | 1012.7 |
| 20260510052037 | 36 | 293 | 2.6 | 5.2 | 0.00 | 0.00 | 0.00 | 84 | 1012.7 |
| 20260510051017 | 36 | 315 | 1.7 | 4.3 | 0.00 | 0.00 | 0.00 | 84 | 1012.6 |
| 20260510050017 | 36 | 293 | 0.9 | 3.5 | 0.00 | 0.00 | 0.00 | 83 | 1012.5 |
| 20260510045015 | 37 | 315 | 0.9 | 4.3 | 0.00 | 0.00 | 0.00 | 84 | 1012.4 |
| 20260510044015 | 37 | 293 | 2.6 | 5.2 | 0.00 | 0.00 | 0.00 | 83 | 1012.6 |
| 20260510043015 | 36 | 293 | 3.5 | 7.8 | 0.00 | 0.00 | 0.00 | 85 | 1012.5 |
| 20260510042017 | 36 | 293 | 1.7 | 3.5 | 0.00 | 0.00 | 0.00 | 84 | 1012.4 |
| 20260510041017 | 36 | 293 | 2.6 | 4.3 | 0.00 | 0.00 | 0.00 | 84 | 1012.4 |
| 20260510040017 | 36 | 293 | 1.7 | 3.5 | 0.00 | 0.00 | 0.00 | 83 | 1012.3 |
| 20260510035017 | 37 | 293 | 0.9 | 1.7 | 0.00 | 0.00 | 0.00 | 83 | 1012.2 |
| 20260510034058 | 37 | 0.0 | 1.7 | 0.00 | 0.00 | 0.00 | 82 | 1012.0 | |
| 20260510033017 | 37 | 293 | 0.9 | 3.5 | 0.00 | 0.00 | 0.00 | 82 | 1012.2 |
| 20260510032018 | 37 | 0 | 1.7 | 5.2 | 0.00 | 0.00 | 0.00 | 81 | 1012.2 |
| 20260510031017 | 37 | 45 | 2.6 | 5.2 | 0.00 | 0.00 | 0.00 | 81 | 1012.0 |
| 20260510030037 | 38 | 23 | 1.7 | 5.2 | 0.00 | 0.00 | 0.00 | 81 | 1012.0 |
| 20260510025017 | 38 | 338 | 1.7 | 4.3 | 0.00 | 0.00 | 0.00 | 81 | 1012.0 |
| 20260510024017 | 37 | 23 | 0.9 | 2.6 | 0.00 | 0.00 | 0.00 | 83 | 1011.9 |
| 20260510023017 | 37 | 315 | 0.9 | 1.7 | 0.00 | 0.00 | 0.00 | 82 | 1011.9 |
| 20260510022017 | 38 | 293 | 0.9 | 2.6 | 0.00 | 0.00 | 0.00 | 82 | 1011.7 |
| 20260510021017 | 38 | 293 | 1.7 | 2.6 | 0.00 | 0.00 | 0.00 | 82 | 1011.7 |
| 20260510020017 | 38 | 293 | 0.9 | 2.6 | 0.00 | 0.00 | 0.00 | 82 | 1011.5 |
| 20260510015017 | 38 | 293 | 3.5 | 7.0 | 0.00 | 0.00 | 0.00 | 81 | 1011.4 |
| 20260510014017 | 38 | 293 | 6.1 | 11.3 | 0.00 | 0.00 | 0.00 | 80 | 1011.2 |
| 20260510013017 | 41 | 315 | 6.1 | 14.8 | 0.00 | 0.00 | 0.00 | 70 | 1011.3 |
| 20260510012037 | 42 | 293 | 4.3 | 7.0 | 0.00 | 0.00 | 0.00 | 59 | 1010.7 |
| 20260510011017 | 42 | 293 | 5.2 | 8.7 | 0.00 | 0.00 | 0.00 | 57 | 1010.5 |
| 20260510010037 | 43 | 293 | 6.1 | 10.4 | 0.00 | 0.00 | 0.00 | 57 | 1010.4 |
| 20260510005017 | 43 | 293 | 7.0 | 11.3 | 0.00 | 0.00 | 0.00 | 57 | 1010.3 |
| 20260510004017 | 43 | 315 | 6.1 | 11.3 | 0.00 | 0.00 | 0.00 | 58 | 1010.3 |
| 20260510003017 | 43 | 315 | 7.0 | 13.0 | 0.00 | 0.00 | 0.00 | 57 | 1010.3 |
| 20260510002017 | 44 | 293 | 8.7 | 17.4 | 0.00 | 0.00 | 0.00 | 55 | 1010.3 |
| 20260510001017 | 44 | 293 | 7.0 | 11.3 | 0.00 | 0.00 | 0.00 | 56 | 1010.2 |
| 20260510000017 | 43 | 315 | 9.6 | 17.4 | 0.00 | 0.00 | 0.00 | 57 | 1010.2 |
| 20260509235017 | 44 | 315 | 8.7 | 15.6 | 0.00 | 0.00 | 0.00 | 56 | 1010.1 |
| 20260509234017 | 44 | 315 | 8.7 | 16.5 | 0.00 | 0.00 | 0.00 | 55 | 1010.0 |
| 20260509233037 | 44 | 293 | 8.7 | 16.5 | 0.00 | 0.00 | 0.00 | 55 | 1009.8 |
| 20260509232017 | 44 | 293 | 7.8 | 13.9 | 0.00 | 0.00 | 0.00 | 54 | 1009.8 |
| 20260509231017 | 45 | 315 | 7.0 | 14.8 | 0.00 | 0.00 | 0.00 | 55 | 1009.7 |
| 20260509230017 | 46 | 315 | 7.8 | 14.8 | 0.00 | 0.00 | 0.00 | 55 | 1009.7 |
| 20260509225037 | 45 | 293 | 7.0 | 11.3 | 0.00 | 0.00 | 0.00 | 55 | 1009.7 |
| 20260509224017 | 44 | 293 | 7.8 | 15.6 | 0.00 | 0.00 | 0.00 | 54 | 1009.6 |
| 20260509223017 | 44 | 293 | 7.0 | 13.0 | 0.00 | 0.00 | 0.00 | 54 | 1009.5 |
| 20260509222017 | 44 | 293 | 7.8 | 13.9 | 0.00 | 0.00 | 0.00 | 55 | 1009.4 |
| 20260509221016 | 45 | 293 | 8.7 | 16.5 | 0.00 | 0.00 | 0.00 | 54 | 1009.4 |
| 20260509220037 | 44 | 315 | 7.8 | 14.8 | 0.00 | 0.00 | 0.00 | 54 | 1009.2 |
| 20260509215016 | 44 | 315 | 8.7 | 13.9 | 0.00 | 0.00 | 0.00 | 57 | 1009.2 |
| 20260509214016 | 45 | 315 | 5.2 | 13.0 | 0.00 | 0.00 | 0.00 | 57 | 1009.1 |
| 20260509213016 | 45 | 293 | 7.8 | 14.8 | 0.00 | 0.00 | 0.00 | 56 | 1008.9 |
| 20260509212016 | 45 | 315 | 8.7 | 15.6 | 0.00 | 0.00 | 0.00 | 55 | 1008.9 |
| 20260509211017 | 44 | 315 | 8.7 | 14.8 | 0.00 | 0.00 | 0.00 | 57 | 1008.9 |
| 20260509210016 | 44 | 315 | 7.8 | 14.8 | 0.00 | 0.00 | 0.00 | 56 | 1008.8 |
| 20260509205016 | 44 | 315 | 8.7 | 18.2 | 0.00 | 0.00 | 0.00 | 55 | 1008.7 |
| 20260509204016 | 43 | 315 | 9.6 | 15.6 | 0.00 | 0.00 | 0.00 | 57 | 1008.6 |
| 20260509203016 | 44 | 315 | 8.7 | 18.2 | 0.00 | 0.00 | 0.00 | 56 | 1008.4 |
| 20260509202016 | 45 | 293 | 7.0 | 13.9 | 0.00 | 0.00 | 0.00 | 56 | 1008.4 |
| 20260509201016 | 44 | 293 | 7.8 | 14.8 | 0.00 | 0.00 | 0.00 | 58 | 1008.3 |
| 20260509200036 | 43 | 315 | 4.3 | 9.6 | 0.00 | 0.00 | 0.00 | 62 | 1008.3 |
| 20260509195036 | 43 | 315 | 3.5 | 7.8 | 0.00 | 0.00 | 0.00 | 61 | 1008.2 |
| 20260509194036 | 43 | 315 | 7.0 | 15.6 | 0.00 | 0.00 | 0.00 | 61 | 1008.3 |
| 20260509193016 | 42 | 293 | 7.8 | 14.8 | 0.00 | 0.00 | 0.00 | 61 | 1008.2 |
| 20260509192017 | 42 | 315 | 8.7 | 13.9 | 0.00 | 0.00 | 0.00 | 61 | 1008.2 |
| 20260509191016 | 42 | 315 | 11.3 | 19.1 | 0.00 | 0.00 | 0.00 | 61 | 1008.0 |
| 20260509190037 | 42 | 315 | 7.8 | 14.8 | 0.00 | 0.00 | 0.00 | 59 | 1007.9 |
| 20260509185016 | 43 | 293 | 8.7 | 15.6 | 0.00 | 0.00 | 0.00 | 57 | 1007.6 |
| 20260509184016 | 43 | 315 | 6.1 | 11.3 | 0.00 | 0.00 | 0.00 | 58 | 1007.6 |
| 20260509183016 | 42 | 315 | 7.0 | 12.2 | 0.00 | 0.00 | 0.00 | 64 | 1007.6 |
| 20260509182016 | 41 | 293 | 6.1 | 10.4 | 0.00 | 0.00 | 0.00 | 63 | 1007.6 |
| 20260509181016 | 41 | 293 | 5.2 | 10.4 | 0.00 | 0.00 | 0.00 | 64 | 1007.7 |
| 20260509180016 | 40 | 315 | 7.8 | 12.2 | 0.00 | 0.00 | 0.00 | 62 | 1007.5 |
| 20260509175016 | 40 | 315 | 4.3 | 11.3 | 0.00 | 0.00 | 0.00 | 64 | 1007.5 |
| 20260509174016 | 40 | 315 | 7.8 | 15.6 | 0.00 | 0.00 | 0.00 | 61 | 1007.5 |
| 20260509173016 | 40 | 338 | 6.1 | 14.8 | 0.00 | 0.00 | 0.00 | 61 | 1007.4 |
| 20260509172016 | 41 | 315 | 5.2 | 10.4 | 0.00 | 0.00 | 0.00 | 61 | 1007.2 |
| 20260509171016 | 41 | 315 | 6.1 | 14.8 | 0.00 | 0.00 | 0.00 | 59 | 1007.0 |
| 20260509170016 | 40 | 293 | 8.7 | 15.6 | 0.00 | 0.00 | 0.00 | 59 | 1006.9 |
| 20260509165016 | 40 | 315 | 7.0 | 13.0 | 0.00 | 0.00 | 0.00 | 63 | 1006.8 |
| 20260509164016 | 40 | 315 | 7.8 | 17.4 | 0.00 | 0.00 | 0.00 | 62 | 1006.7 |
| 20260509163016 | 40 | 315 | 7.0 | 13.9 | 0.00 | 0.00 | 0.00 | 61 | 1006.5 |
| 20260509162016 | 40 | 315 | 6.1 | 10.4 | 0.00 | 0.00 | 0.00 | 60 | 1006.4 |
| 20260509161016 | 41 | 315 | 6.1 | 12.2 | 0.00 | 0.00 | 0.00 | 62 | 1006.4 |
| 20260509160016 | 41 | 338 | 4.3 | 9.6 | 0.00 | 0.00 | 0.00 | 62 | 1006.4 |
| 20260509155016 | 40 | 315 | 6.1 | 13.9 | 0.00 | 0.00 | 0.00 | 62 | 1006.1 |
| 20260509154016 | 40 | 315 | 6.1 | 13.9 | 0.00 | 0.00 | 0.00 | 63 | 1006.0 |